Hickory, NC

2:05 AM EST on February 09, 2016 (GMT -0500)
Hickory Regional

Weather History for KHKY - March, 2012

Change the Weather History Date:

Friday, March 9, 2012

  Actual Average Record
Temperature  
Mean Temperature 52 °F -  
Max Temperature 57 °F 58 °F 81 °F (1974)
Min Temperature 46 °F 35 °F 20 °F (1960)
Degree Days  
Heating Degree Days 14    
Growing Degree Days 2 (Base 50)    
Moisture  
Dew Point 39 °F    
Average Humidity 64    
Maximum Humidity 100    
Minimum Humidity 28    
Precipitation  
Precipitation 0.13 in - - ()
Sea Level Pressure  
Sea Level Pressure 30.15 in    
Wind  
Wind Speed 4 mph (NW)    
Max Wind Speed 14 mph    
Max Gust Speed 23 mph    
Visibility 8 miles    
Events Rain    
Averages and records for this station are not official NWS values.
T = Trace of Precipitation, MM = Missing Value Source: NWS Daily Summary

Daily Weather History Graph

Daily Weather History Graph

Search for Another Location

Airport or City:

Trip Planner

Search our weather history database for the weather conditions in past years. The results will help you decide how hot, cold, wet, or windy it might be!

Date:

Astronomy

Mar. 09, 2012 Rise Set
Actual Time 6:44 AM EST 6:28 PM EST
Civil Twilight 6:18 AM EST 6:53 PM EST
Nautical Twilight 5:49 AM EST 7:23 PM EST
Astronomical Twilight 5:19 AM EST 7:53 PM EST
Moon 8:20 PM EST 7:06 AM EST
Length of Visible Light 12h 35m
Length of Day
11h 44m
Full, 98% of the Moon is Illuminated
Mar 9
Full
Mar 14
Last Quarter
Mar 22
New
Mar 30
First Quarter
Apr 6
Full

Hourly Weather History & Observations

Time (EST) Temp. Dew Point Humidity Pressure Visibility Wind Dir Wind Speed Gust Speed Precip Events Conditions
12:53 AM 57.0 °F 55.0 °F 93% 30.09 in 10.0 mi Calm Calm - 0.01 in   Overcast
1:53 AM 55.9 °F 55.0 °F 97% 30.07 in 5.0 mi Calm Calm - 0.04 in Rain Rain
2:53 AM 55.9 °F 55.0 °F 97% 30.06 in 4.0 mi SSW 3.5 mph - 0.07 in Rain Rain
3:21 AM 55.4 °F 53.6 °F 94% 30.08 in 1.8 mi Calm Calm - 0.00 in Rain Light Rain
3:30 AM 55.4 °F 53.6 °F 94% 30.08 in 3.0 mi South 3.5 mph - 0.00 in   Mostly Cloudy
3:53 AM 55.9 °F 54.0 °F 93% 30.06 in 6.0 mi West 5.8 mph - 0.01 in   Scattered Clouds
4:07 AM 55.4 °F 55.4 °F 100% 30.10 in 5.0 mi WSW 4.6 mph - N/A   Mostly Cloudy
4:29 AM 55.4 °F 53.6 °F 94% 30.10 in 4.0 mi NNW 3.5 mph - N/A   Overcast
4:53 AM 55.0 °F 54.0 °F 96% 30.06 in 7.0 mi Calm Calm - N/A   Overcast
5:53 AM 55.0 °F 53.1 °F 93% 30.08 in 10.0 mi WNW 5.8 mph - N/A   Overcast
6:21 AM 55.4 °F 53.6 °F 94% 30.14 in 8.0 mi NW 6.9 mph - N/A   Overcast
6:44 AM 53.6 °F 53.6 °F 100% 30.14 in 8.0 mi NNW 4.6 mph - N/A   Overcast
6:53 AM 54.0 °F 53.1 °F 97% 30.10 in 10.0 mi NW 5.8 mph - N/A   Overcast
7:53 AM 53.1 °F 48.0 °F 83% 30.14 in 10.0 mi NW 6.9 mph - N/A   Mostly Cloudy
8:53 AM 54.0 °F 45.0 °F 72% 30.15 in 10.0 mi NNW 6.9 mph - N/A   Partly Cloudy
9:53 AM 55.0 °F 39.0 °F 55% 30.17 in 10.0 mi NNW 11.5 mph - N/A   Clear
10:53 AM 55.0 °F 30.0 °F 38% 30.19 in 10.0 mi NNW 12.7 mph 20.7 mph N/A   Clear
11:53 AM 55.0 °F 27.0 °F 34% 30.20 in 10.0 mi NNW 10.4 mph - N/A   Clear
12:53 PM 55.9 °F 24.1 °F 29% 30.19 in 10.0 mi NNW 13.8 mph 23.0 mph N/A   Clear
1:53 PM 55.0 °F 24.1 °F 30% 30.17 in 10.0 mi NNW 10.4 mph 16.1 mph N/A   Clear
2:53 PM 57.0 °F 25.0 °F 29% 30.17 in 10.0 mi NNW 5.8 mph 20.7 mph N/A   Clear
3:53 PM 57.0 °F 24.1 °F 28% 30.16 in 10.0 mi North 9.2 mph - N/A   Clear
4:53 PM 57.9 °F 25.0 °F 28% 30.17 in 10.0 mi North 10.4 mph - N/A   Clear
5:53 PM 55.9 °F 23.0 °F 28% 30.18 in 10.0 mi NW 6.9 mph - N/A   Clear
6:53 PM 53.1 °F 21.9 °F 30% 30.20 in 10.0 mi NW 3.5 mph - N/A   Clear
7:53 PM 52.0 °F 21.0 °F 30% 30.24 in 10.0 mi NW 8.1 mph - N/A   Clear
8:53 PM 48.9 °F 23.0 °F 36% 30.26 in 10.0 mi WNW 4.6 mph - N/A   Clear
9:53 PM 48.9 °F 23.0 °F 36% 30.27 in 10.0 mi NNW 5.8 mph - N/A   Clear
10:53 PM 46.0 °F 23.0 °F 40% 30.28 in 10.0 mi Calm Calm - N/A   Clear
11:53 PM 46.9 °F 21.9 °F 37% 30.30 in 10.0 mi NW 4.6 mph - N/A   Clear